sat.trackr.live / text

‹ back to catalog

STARLINK-32581

NORAD 62184 · 2024-225X

PAYLOAD ACTIVE UNKNOWN

§ Identity

Operator
Country
US
Launch date
2024-11-30
Launch site
AFWTR
Launch vehicle
Mass (kg)
RCS (m²)

Purposes: comms

External: N2YO · Heavens-Above · Gunter

§ Orbital elements

Epoch: 2026-09-21T17:58:29.118432Z

Period
94.14 min
Inclination
70.0014°
Eccentricity
0.0003498
Mean motion
15.29582022 rev/d
Perigee alt
474.7 km
Apogee alt
479.5 km
Semi-major
6,855.2 km
B*
3.8209e-4
RAAN
17.6867°
Arg perigee
273.6947°
Mean anomaly
86.3828°
Rev number
9,955

§ Raw data

STARLINK-325811 62184U 24225X   26264.74894813  .00010873  00000+0  38209-3 0  99932 62184  70.0014  17.6867 0003498 273.6947  86.3828 15.29582022 99551

JSON: /api/v1/satellites/62184 · /tle

For live sub-satellite position, see the globe view (requires WebGL).

§ Visibility from observer

Set your observer location to see the next 7 days of passes ≥ 10°. The values pass through the URL so the page stays shareable.

No JS? Fill the form by hand. The geolocation button needs JavaScript.